Hourly Weather Allaire

Today, 1 December, Tuesday

Time Temperature Precipitation Wind Pressure Humidity
00:00 +8°C° 0 mm 4 mps 765 mmHg 87%
01:00 +8°C° 0.2 mm 4 mps 765 mmHg 87%
02:00 +8°C° 0.2 mm 4 mps 764 mmHg 87%
03:00 +8°C° 0.2 mm 5 mps 764 mmHg 87%
04:00 +8°C° 0 mm 5 mps 764 mmHg 89%
05:00 +8°C° 0 mm 4 mps 764 mmHg 92%
06:00 +9°C° 0 mm 3 mps 764 mmHg 94%
07:00 +9°C° 0 mm 3 mps 764 mmHg 90%
08:00 +8°C° 0 mm 3 mps 764 mmHg 86%
09:00 +8°C° 0 mm 3 mps 764 mmHg 82%
10:00 +7°C° 0 mm 4 mps 764 mmHg 77%
11:00 +8°C° 0 mm 4 mps 764 mmHg 71%
12:00 +8°C° 0 mm 5 mps 764 mmHg 66%
13:00 +8°C° 0 mm 5 mps 764 mmHg 68%
14:00 +8°C° 0 mm 4 mps 764 mmHg 70%
15:00 +8°C° 0 mm 4 mps 764 mmHg 72%
16:00 +7°C° 0 mm 4 mps 764 mmHg 76%
17:00 +6°C° 0 mm 4 mps 764 mmHg 79%
18:00 +5°C° 0 mm 3 mps 764 mmHg 83%
19:00 +5°C° 0 mm 3 mps 764 mmHg 84%
20:00 +4°C° 0 mm 3 mps 764 mmHg 85%
21:00 +4°C° 0 mm 3 mps 764 mmHg 86%
22:00 +3°C° 0 mm 3 mps 764 mmHg 87%
23:00 +3°C° 0 mm 3 mps 764 mmHg 87%

Tomorrow, 2 December, Wednesday

Time Temperature Precipitation Wind Pressure Humidity
00:00 +3°C° 0 mm 3 mps 764 mmHg 88%
01:00 +3°C° 0 mm 3 mps 763 mmHg 89%
02:00 +3°C° 0 mm 3 mps 763 mmHg 89%
03:00 +4°C° 0 mm 2 mps 763 mmHg 90%
04:00 +4°C° 0 mm 2 mps 762 mmHg 89%
05:00 +4°C° 0 mm 2 mps 762 mmHg 88%
06:00 +5°C° 0 mm 2 mps 762 mmHg 87%
07:00 +5°C° 0 mm 2 mps 762 mmHg 86%
08:00 +5°C° 0 mm 2 mps 762 mmHg 84%
09:00 +6°C° 0 mm 2 mps 762 mmHg 83%
10:00 +6°C° 0 mm 2 mps 761 mmHg 79%
11:00 +7°C° 0 mm 2 mps 761 mmHg 76%
12:00 +8°C° 0 mm 2 mps 761 mmHg 72%
13:00 +8°C° 0 mm 2 mps 760 mmHg 73%
14:00 +8°C° 0 mm 2 mps 760 mmHg 74%
15:00 +8°C° 0 mm 2 mps 759 mmHg 75%
16:00 +8°C° 0 mm 2 mps 759 mmHg 78%
17:00 +7°C° 0 mm 2 mps 759 mmHg 81%
18:00 +7°C° 0 mm 2 mps 758 mmHg 84%
19:00 +7°C° 0.1 mm 2 mps 758 mmHg 86%
20:00 +8°C° 0.1 mm 3 mps 758 mmHg 87%
21:00 +8°C° 0.1 mm 3 mps 758 mmHg 88%
22:00 +8°C° 0.1 mm 3 mps 757 mmHg 89%
23:00 +8°C° 0.1 mm 3 mps 757 mmHg 91%

Day after tomorrow, 3 December, Thursday

Time Temperature Precipitation Wind Pressure Humidity
00:00 +7°C° 0.1 mm 3 mps 756 mmHg 92%
01:00 +7°C° 0 mm 3 mps 756 mmHg 91%
02:00 +5°C° 0 mm 3 mps 755 mmHg 90%
03:00 +4°C° 0 mm 3 mps 754 mmHg 89%
04:00 +4°C° 0 mm 3 mps 754 mmHg 87%
05:00 +5°C° 0 mm 2 mps 753 mmHg 85%
06:00 +5°C° 0 mm 2 mps 752 mmHg 83%
07:00 +5°C° 0.3 mm 3 mps 751 mmHg 84%
08:00 +5°C° 0.3 mm 3 mps 750 mmHg 86%
09:00 +7°C° 0.3 mm 3 mps 749 mmHg 87%
10:00 +6°C° 1.1 mm 4 mps 748 mmHg 88%
11:00 +6°C° 1.1 mm 4 mps 747 mmHg 89%
12:00 +7°C° 1.1 mm 5 mps 745 mmHg 91%
13:00 +7°C° 1.3 mm 5 mps 744 mmHg 91%
14:00 +7°C° 1.3 mm 5 mps 742 mmHg 91%
15:00 +7°C° 1.3 mm 5 mps 740 mmHg 91%
16:00 +6°C° 1.4 mm 5 mps 739 mmHg 91%
17:00 +6°C° 1.4 mm 5 mps 738 mmHg 90%
18:00 +6°C° 1.4 mm 5 mps 736 mmHg 90%
19:00 +6°C° 0.5 mm 5 mps 736 mmHg 89%
20:00 +6°C° 0.5 mm 5 mps 735 mmHg 89%
21:00 +5°C° 0.5 mm 4 mps 734 mmHg 88%
22:00 +5°C° 0 mm 4 mps 733 mmHg 88%
23:00 +4°C° 0 mm 3 mps 732 mmHg 89%

4 December, Friday

Time Temperature Precipitation Wind Pressure Humidity
00:00 +4°C° 0 mm 3 mps 731 mmHg 89%
01:00 +3°C° 0 mm 3 mps 731 mmHg 91%
02:00 +3°C° 0 mm 4 mps 730 mmHg 92%
03:00 +3°C° 0 mm 4 mps 730 mmHg 93%
04:00 +3°C° 0.4 mm 4 mps 730 mmHg 93%
05:00 +2°C° 0.4 mm 5 mps 731 mmHg 93%
06:00 +2°C° 0.4 mm 5 mps 731 mmHg 94%
07:00 +2°C° 1.2 mm 5 mps 732 mmHg 89%
08:00 +3°C° 1.2 mm 6 mps 732 mmHg 85%
09:00 +3°C° 1.2 mm 6 mps 733 mmHg 81%
10:00 +4°C° 0 mm 6 mps 734 mmHg 76%
11:00 +4°C° 0 mm 6 mps 734 mmHg 70%
12:00 +5°C° 0 mm 6 mps 735 mmHg 64%
13:00 +4°C° 0 mm 6 mps 735 mmHg 65%
14:00 +5°C° 0 mm 5 mps 735 mmHg 66%
15:00 +5°C° 0 mm 4 mps 735 mmHg 67%
16:00 +4°C° 0 mm 4 mps 736 mmHg 71%
17:00 +3°C° 0 mm 4 mps 736 mmHg 75%
18:00 +1°C° 0 mm 4 mps 736 mmHg 79%
19:00 +2°C° 0 mm 3 mps 736 mmHg 79%
20:00 +1°C° 0 mm 3 mps 737 mmHg 78%
21:00 +1°C° 0 mm 3 mps 737 mmHg 78%
22:00 +1°C° 0 mm 3 mps 737 mmHg 79%
23:00 +2°C° 0 mm 2 mps 737 mmHg 80%

5 December, Saturday

Time Temperature Precipitation Wind Pressure Humidity
00:00 +2°C° 0 mm 2 mps 737 mmHg 81%
01:00 +1°C° 0 mm 2 mps 737 mmHg 82%
02:00 0°C° 0 mm 3 mps 737 mmHg 84%
03:00 0°C° 0 mm 3 mps 737 mmHg 85%
04:00 0°C° 0 mm 3 mps 737 mmHg 85%
05:00 0°C° 0 mm 3 mps 737 mmHg 85%
06:00 -1°C° 0 mm 4 mps 737 mmHg 85%
07:00 0°C° 0 mm 4 mps 738 mmHg 82%
08:00 +1°C° 0 mm 4 mps 738 mmHg 79%
09:00 +1°C° 0 mm 5 mps 738 mmHg 76%
10:00 +2°C° 0.3 mm 6 mps 738 mmHg 76%
11:00 +3°C° 0.3 mm 7 mps 737 mmHg 76%
12:00 +4°C° 0.3 mm 8 mps 737 mmHg 77%
13:00 +4°C° 1.2 mm 8 mps 737 mmHg 80%
14:00 +4°C° 1.2 mm 8 mps 737 mmHg 84%
15:00 +4°C° 1.2 mm 8 mps 737 mmHg 88%
16:00 +4°C° 0.2 mm 7 mps 737 mmHg 88%
17:00 +3°C° 0.2 mm 7 mps 737 mmHg 88%
18:00 +3°C° 0.2 mm 6 mps 737 mmHg 88%
19:00 +3°C° 0.1 mm 6 mps 738 mmHg 89%
20:00 +3°C° 0.1 mm 6 mps 738 mmHg 90%
21:00 +2°C° 0.1 mm 5 mps 738 mmHg 91%
22:00 +2°C° 0 mm 5 mps 738 mmHg 91%
23:00 +2°C° 0 mm 5 mps 738 mmHg 90%

6 December, Sunday

Time Temperature Precipitation Wind Pressure Humidity
00:00 +2°C° 0 mm 5 mps 738 mmHg 89%
01:00 +2°C° 0 mm 6 mps 738 mmHg 87%
02:00 +2°C° 0 mm 6 mps 739 mmHg 86%
03:00 +2°C° 0 mm 7 mps 739 mmHg 85%
04:00 +2°C° 0.3 mm 7 mps 739 mmHg 85%
05:00 +2°C° 0.3 mm 6 mps 740 mmHg 85%
06:00 +2°C° 0.3 mm 6 mps 740 mmHg 85%
07:00 +2°C° 0 mm 6 mps 741 mmHg 84%
08:00 +2°C° 0 mm 6 mps 741 mmHg 84%
09:00 +2°C° 0 mm 6 mps 742 mmHg 84%
10:00 +3°C° 0.1 mm 6 mps 742 mmHg 78%
11:00 +4°C° 0.1 mm 6 mps 743 mmHg 73%
12:00 +7°C° 0.1 mm 6 mps 743 mmHg 68%
13:00 +6°C° 0 mm 5 mps 744 mmHg 69%
14:00 +6°C° 0 mm 4 mps 744 mmHg 70%
15:00 +6°C° 0 mm 4 mps 744 mmHg 72%
16:00 +5°C° 0 mm 4 mps 745 mmHg 74%
17:00 +4°C° 0 mm 4 mps 745 mmHg 77%
18:00 +3°C° 0 mm 4 mps 745 mmHg 80%
19:00 +3°C° 0 mm 4 mps 746 mmHg 82%
20:00 +3°C° 0 mm 5 mps 746 mmHg 83%
21:00 +3°C° 0 mm 5 mps 747 mmHg 84%
22:00 +3°C° 0 mm 5 mps 747 mmHg 86%
23:00 +3°C° 0 mm 5 mps 747 mmHg 87%
Show more